TRANSIT 5B-1 DEB, 3166

Orbit data source: Space-Track

TRANSIT 5B-1 DEB, 3166 is space debris in LEO originally from a launch on Sat, 28 Sep 1963 UTC launched from the Air Force Western Test Range (AFWTR). Debris objects in space refer to the collection of defunct objects orbiting the Earth. Examples of debris include non-operational satellites, rocket bodies, and fragments generated from explosions, collisions, or faulty payload assembly.

Loading next visibility...
Identifier
3166, 1963-038H
Orbit
LEO
Country
Flag of USUS
Related business
Manufacturer
Unknown
Mission
Spacecraft
Bus & Motor
Unknown
Mass
Unknown
Launch date (UTC)
1963-09-28 (62 years ago)
Launch vehicle
Unknown
Launch site
Air Force Western Test Range (AFWTR)
Object type
Payload
Rocket body
Debris
Shape & HBR
Unknown shape, 0.2 m
Radar Cross Section
Medium (>0.1 m² and <1 m²)

Expand to show TLE details & history
Last TLE update: 1 day ago

TLE from 1 day ago
0 TRANSIT 5B-1 DEB
1 03166U 63038H   25306.01649796  .00000121  00000-0  19022-3 0  9995
2 03166  89.9714 333.7167 0039832 308.1319 117.1966 13.44933834561056
Epoch: 2025-11-02T00:23Z
TLE epoch observation values (Epoch: 2025-11-02T00:23:45.423Z)
Latitude
65.81319°
Longitude
-73.69749°
Altitude
1,116.107 km
Speed
7.294 km/s
True Right ascension
22h 15m 07s
True Declination
65° 41' 26"
Sunlit
Object was in daylight at epoch
Visualization orbit readout
Latitude
Unknown
Longitude
Unknown
Altitude
Unknown
Speed
Unknown
Apparent Right ascension
Unknown
Apparent Declination
Unknown
Sunlit
N/A
Visualization observer readout
Local Sidereal Time
20:14:36
Azimuth
Unknown
Elevation
Unknown
Doppler factor
Unknown
Orbital elements
Apogee altitude
1,117.753 km
Perigee altitude
1,058.274 km
Semi-major axis
7,466.151 km
Eccentricity
0.00398
Inclination
89.9714°
RAAN
333.7167°
Arg. of periapsis
308.1319°
True anomaly
117.60165°
Mean anomaly
117.1966°
Eccentric anomaly
117.39922°
Mean motion
3.36433 °/min
Orbital period
107.01 mins
BSTAR
0.00019022
Loading maneuver chart data...
Computing Atmospheric mass density...

Documentation

Showing up to 5 results
|